Regional Weather Roundup
Issued by NWS

Home | Current Version | Previous Version | Text Only | Print | Product List | Glossary Off
Versions: 1 2 3 4 5 6 7 8 9 10 11 12 13 14 15 16 17 18 19 20 21 22 23 24 25 26 27 28

000
ASUS45 KCYS 221110
RWRWY

WYOMING REGIONAL WEATHER ROUNDUP
NATIONAL WEATHER SERVICE CHEYENNE WY
400 AM MST WED NOV 22 2017

NOTE:  "FAIR" INDICATES FEW OR NO CLOUDS BELOW 12,000 FEET
WITH NO SIGNIFICANT WEATHER AND/OR OBSTRUCTIONS TO VISIBILITY.

WYZ001-221200-
YELLOWSTONE NATIONAL PARK

CITY           SKY/WX    TMP DP  RH WIND       PRES   REMARKS
LK YELLOWSTONE   N/A     37  36  96 W9        30.36F WCI  30
W YELLOWSTONE  NOT AVBL

$$
WYZ002>013-054>058-071-098>099-221200-
NORTHERN WYOMING

CITY           SKY/WX    TMP DP  RH WIND       PRES   REMARKS
JACKSON        CLOUDY    41  40  96 CALM      30.35F
CODY           FAIR      56  37  49 W17G24    30.13F
GREYBULL       FAIR      29  27  92 S3        30.16F
WORLAND        FAIR      27  27 100 S7        30.16F WCI  19
SHERIDAN       FAIR      32  29  88 CALM      30.03F
BUFFALO        FAIR      40  25  55 S8        30.06F WCI  34
GILLETTE       FAIR      47  29  49 SW15      30.04F
HULETT         FAIR      43  27  52 SW10      30.05F
NEWCASTLE      FAIR      32  27  80 CALM      30.12F

$$
WYZ014>020-022>026-101>103-221200-
CENTRAL WYOMING

CITY           SKY/WX    TMP DP  RH WIND       PRES   REMARKS
BIG PINEY      CLOUDY    35  34  96 NE5       30.40S WCI  31
PINEDALE       CLOUDY    32  32 100 CALM      30.41S
DUBOIS         PTSUNNY   39  34  81 N9        30.28F WCI  33
LANDER         FAIR      39  29  67 W9        30.20S WCI  33
RIVERTON       FAIR      40  29  64 W7        30.20F
CASPER         FAIR      45  34  65 SW20      30.17F
DOUGLAS        FAIR      29  27  92 S3        30.14F

$$
WYZ021-027>030-104>119-221200-
SOUTHERN WYOMING

CITY           SKY/WX    TMP DP  RH WIND       PRES   REMARKS
EVANSTON       CLOUDY    41  36  82 SW9       30.45S
KEMMERER       CLOUDY    37  36  93 SW7       30.43S WCI  32
FORT BRIDGER   CLOUDY    44  37  77 SW8       30.46S
ROCK SPRINGS   CLOUDY    42  34  73 SW17      30.39S
DIXON          CLOUDY    35  33  92 E5        30.44S WCI  31
RAWLINS        FAIR      41  35  79 W21       30.34F
SARATOGA       PTSUNNY   41  34  75 SW12G18   30.38R
LARAMIE        FAIR      40  33  76 W24       30.28F WCI  29
CHEYENNE       MOCLDY    48  34  58 W14G22    30.22F
TORRINGTON     FAIR      31  27  85 NE3       30.15F
PINE BLUFFS    FAIR      34  32  93 MISG      30.21F

$$




USA.gov is the U.S. government's official web portal to all federal, state and local government web resources and services.